This demonstration page uses our WeatherBlox Daily Observations layout. Learn more.

Left ArrowRight Arrow

34.02893, -84.19858

Hourly Observations for August 23, 2015

Temp ( °F °C ) Dew Point ( °F °C ) Humidity (%) Winds ( mph kmh ) Pressure ( in mb ) Visibility ( mi km ) Precip ( " mm )
12:03 am 00:03 Cloudy with Light Rain 79 26 72 22 79 79 N 8 13 30.00 1016 10 16 0.00 0.00
12:10 am 00:10 Cloudy with Light Rain 77 25 72 22 83 83 N 6 9 30.00 1016 10 16 0.00 0.00
12:20 am 00:20 Cloudy with Nearby Thunderstorms 73 23 72 22 94 94 NNE 10 17 30.03 1017 2 3 0.00 0.00
12:29 am 00:29 Cloudy with Thunderstorms 73 22.8 72 22.2 96 96 NNE 10 17 30.03 1017 1 2 0.31 7.87
12:33 am 00:33 Cloudy with Thunderstorms 73 22.8 71 21.7 94 94 NNE 8 13 30.03 1017 3 5 0.31 7.87
12:39 am 00:39 Cloudy with Nearby Thunderstorms 73 22.8 71 21.7 94 94 VRB 7 11 30.03 1017 10 16 0.31 7.87
12:53 am 00:53 Cloudy with Nearby Thunderstorms 72 22.2 71 21.7 97 97 ENE 6 9 30.00 1016 10 16 0.32 8.13
12:59 am 00:59 Cloudy with Nearby Thunderstorms 72 22.2 71 21.7 97 97 ENE 9 15 30.03 1017 2 2 0.23 5.84
1:11 am 01:11 Cloudy with Thunderstorms 71 21.7 70 21.1 96 96 NNE 12 19 30.03 1017 3 5 0.30 7.62
1:26 am 01:26 Cloudy with Thunderstorms 72 22 70 21 94 94 VRB 5 7 30.03 1017 10 16 0.00 0.00
1:35 am 01:35 Cloudy with Nearby Thunderstorms 71 21.7 70 21.1 96 96 ENE 8 13 30.03 1017 10 16 0.30 7.62
1:44 am 01:44 Cloudy with Light Rain 72 22 70 21 94 94 VRB 6 9 30.03 1017 9 14 0.00 0.00
1:51 am 01:51 Cloudy with Light Rain 72 22 70 21 94 94 VRB 5 7 30.03 1017 8 13 0.31 7.87
1:53 am 01:53 Cloudy with Light Rain 71 21.7 70 21.1 96 96 VRB 5 7 30.00 1016 9 14 0.31 7.87
2:00 am 02:00 Mostly Cloudy 72 22 70 21 94 94 VRB 6 9 30.03 1017 10 16 0.00 0.00
2:13 am 02:13 Cloudy 71 21.7 70 21.1 96 96 VRB 3 6 30.03 1017 10 16 0.00 0.03
2:42 am 02:42 Mostly Cloudy 72 22 72 22 100 100 SSE 3 6 30.03 1017 10 16 0.00 0.00
2:48 am 02:48 Cloudy 72 22 72 22 100 100 VRB 3 6 30.03 1017 10 16 0.00 0.00
2:53 am 02:53 Cloudy 71 21.7 71 21.7 100 100 Calm 29.99 1016 10 16 0.00 0.03
3:32 am 03:32 Partly Cloudy 72 22 72 22 100 100 Calm 30.00 1016 10 16 0.00 0.00
3:53 am 03:53 Mostly Clear 71 21.7 71 21.7 100 100 Calm 29.98 1015 10 16 0.00 0.00
4:53 am 04:53 Partly Cloudy 71 21.7 70 21.1 96 96 Calm 29.97 1015 10 16 0.00 0.00
5:53 am 05:53 Clear 70 21.1 70 21.1 100 100 Calm 29.96 1015 10 16 0.00 0.00
6:25 am 06:25 Mostly Cloudy 70 21.1 70 21.1 100 100 Calm 30.00 1016 10 16 0.00 0.00
6:53 am 06:53 Mostly Clear 70 21.1 70 21.1 100 100 VRB 3 6 29.97 1015 10 16 0.00 0.00
7:09 am 07:09 Mostly Cloudy 70 21.1 70 21.1 100 100 Calm 30.00 1016 10 16 0.00 0.00
7:47 am 07:47 Mostly Cloudy 70 21 70 21 100 100 Calm 30.00 1016 10 16 0.00 0.00
7:53 am 07:53 Mostly Cloudy 70 21.1 70 21.1 100 100 SSE 3 6 29.99 1016 10 16 0.00 0.00
8:08 am 08:08 Mostly Cloudy with Thunderstorms 72 22 70 21 94 94 Calm 30.00 1016 3 5 0.00 0.00
8:10 am 08:10 Mostly Cloudy with Strong Thunderstorms 70 21 70 21 100 100 VRB 3 6 30.00 1016 2 2 0.00 0.00
8:14 am 08:14 Cloudy with Strong Thunderstorms 70 21 70 21 100 100 Calm 30.00 1016 1 1 0.00 0.00
8:23 am 08:23 Cloudy with Thunderstorms 70 21.1 70 21.1 100 100 WNW 5 7 30.03 1017 1 2 0.22 5.59
8:28 am 08:28 Cloudy with Thunderstorms 70 21 70 21 100 100 WNW 5 7 30.03 1017 3 5 0.00 0.00
8:43 am 08:43 Cloudy with Nearby Thunderstorms 71 21.7 70 21.1 96 96 W 17 28 30.06 1018 6 10 0.25 6.35
8:47 am 08:47 Cloudy with Strong Thunderstorms 72 22 70 21 94 94 W 14 22 30.06 1018 3 4 0.31 7.87
8:59 am 08:59 Partly Cloudy with Strong Thunderstorms 69 20.6 69 20.6 100 100 SW 16 26 30.06 1018 N/A 0.97 24.64
9:08 am 09:08 Partly Cloudy with Strong Thunderstorms 70 21 70 21 100 100 W 5 7 30.06 1018 1 1 0.00 0.00
9:13 am 09:13 Partly Cloudy with Thunderstorms 70 21.1 69 20.6 97 97 WSW 7 11 30.06 1018 2 3 1.17 29.72
9:25 am 09:25 Cloudy with Thunderstorms 70 21.1 69 20.6 97 97 WNW 6 9 30.06 1018 2 3 1.22 30.99
9:28 am 09:28 Cloudy with Nearby Thunderstorms 70 21.1 70 21.1 100 100 WNW 6 9 30.06 1018 2 3 1.23 31.24
9:37 am 09:37 Cloudy with Rain 70 21.1 70 21.1 100 100 W 6 9 30.06 1018 3 5 1.25 31.75
9:42 am 09:42 Cloudy with Rain 70 21 70 21 100 100 WSW 8 13 30.06 1018 2 2 0.00 0.00
9:51 am 09:51 Cloudy with Heavy Rain 70 21 70 21 100 100 SW 6 9 30.06 1018 1 1 1.38 35.05
9:53 am 09:53 Cloudy with Heavy Rain 70 21.1 70 21.1 100 100 Calm 30.03 1017 1 1 1.39 35.31
9:58 am 09:58 Cloudy with Rain 70 21 70 21 100 100 Calm 30.06 1018 1 2 0.00 0.00
10:32 am 10:32 Cloudy with Rain 70 21 70 21 100 100 Calm 30.03 1017 3 4 0.00 0.00
10:39 am 10:39 Cloudy with Light Rain 70 21.1 70 21.1 100 100 Calm 30.03 1017 4 6 0.12 3.05
10:53 am 10:53 Cloudy with Light Rain 70 21.1 70 21.1 100 100 SE 3 6 30.02 1017 5 8 0.13 3.30
11:17 am 11:17 Mostly Cloudy with Light Rain 71 21.7 71 21.7 100 100 Calm 30.03 1017 10 16 0.01 0.25
11:53 am 11:53 Mostly Sunny 75 23.9 71 21.7 88 88 Calm 30.00 1016 10 16 0.01 0.25
12:53 pm 12:53 Sunny 81 27.2 72 22.2 74 74 NW 6 9 29.99 1016 10 16 0.01 0.25
1:34 pm 13:34 Mostly Cloudy 81 27 72 22 74 74 Calm 29.97 1015 10 16 0.00 0.00
1:48 pm 13:48 Partly Cloudy 81 27 72 22 74 74 NW 7 11 29.97 1015 10 16 0.00 0.00
1:53 pm 13:53 Partly Cloudy 81 27.2 72 22.2 74 74 VRB 5 7 29.98 1015 10 16 0.00 0.00
2:53 pm 14:53 Mostly Cloudy 83 28.3 71 21.7 67 67 WNW 6 9 29.94 1014 10 16 0.00 0.00
3:53 pm 15:53 Mostly Cloudy 83 28.3 69 20.6 63 63 VRB 6 9 29.92 1013 10 16 0.00 0.00
4:53 pm 16:53 Mostly Cloudy 83 28.3 70 21.1 65 65 WNW 9 15 29.91 1013 10 16 0.00 0.00
5:53 pm 17:53 Mostly Sunny 84 28.9 70 21.1 63 63 WNW 8 13 29.90 1013 10 16 0.00 0.00
6:53 pm 18:53 Sunny 83 28.3 69 20.6 63 63 W 9 15 29.90 1012 10 16 0.00 0.00
7:53 pm 19:53 Mostly Sunny 81 27.2 69 20.6 67 67 NW 6 9 29.91 1013 10 16 0.00 0.00
10:53 pm 22:53 Clear 75 23.9 71 21.7 88 88 Calm 29.95 1014 10 16 0.00 0.00
11:53 pm 23:53 Clear 73 22.8 72 22.2 96 96 Calm 29.95 1014 10 16 0.00 0.00

Powered by AerisWeather